sat.trackr.live / text

‹ back to catalog

STARLINK-2533

NORAD 48294 · 2021-036U

PAYLOAD ACTIVE UNKNOWN

§ Identity

Operator
Country
US
Launch date
2021-04-29
Launch site
AFETR
Launch vehicle
Mass (kg)
RCS (m²)

Purposes: comms

External: N2YO · Heavens-Above · Gunter

§ Orbital elements

Epoch: 2026-05-25T02:13:06.879936Z

Period
94.01 min
Inclination
53.1612°
Eccentricity
0.0001181
Mean motion
15.31690701 rev/d
Perigee alt
470.0 km
Apogee alt
471.6 km
Semi-major
6,848.9 km
B*
-1.2314e-5
RAAN
80.0096°
Arg perigee
80.3550°
Mean anomaly
279.7585°
Rev number
28,011

§ Raw data

STARLINK-25331 48294U 21036U   26145.09244074 -.00000747  00000+0 -12314-4 0  99912 48294  53.1612  80.0096 0001181  80.3550 279.7585 15.31690701280110

JSON: /api/v1/satellites/48294 · /tle

For live sub-satellite position, see the globe view (requires WebGL).

§ Visibility from observer

Set your observer location to see the next 7 days of passes ≥ 10°. The values pass through the URL so the page stays shareable.

No JS? Fill the form by hand. The geolocation button needs JavaScript.